• Join FlightAware (Why Join?)
  • Login
  • US Flag GB Flag 
11:55 EDT


 

Airport Tracker/Info


-or-


 

Live Flight TrackerFlight Track Log ✈ AAY844 ✈ 09-Jun-2014 ✈ KPIE - KSWF

Flight Track Log - Related Links

Times and Time Zones

All times are in EDT time to prevent confusion due to time zone crossing. See the AAY844 flight status page for this flight to view local times or setup timezone preferences in your user account.

Time Position Orientation Groundspeed Altitude Reporting Facility
EDT Latitude Longitude Course Direction KTS MPH feet Rate Location/Type
15:07 27.9333 -82.7000 16° North 185 213 1,000  Level Tampa TRACON
15:09 28.0322 -82.6678 16° North 261 300 4,000 2,280 Climbing Miami Center
15:10 28.1272 -82.6772 355° North 282 325 7,500 2,820 Climbing Miami Center
15:11 28.2061 -82.6864 354° North 282 325 9,900 1,800 Climbing Miami Center
15:12 28.2928 -82.6983 353° North 304 350 11,300 1,380 Climbing Miami Center
15:13 28.3942 -82.7119 353° North 356 410 12,800 1,680 Climbing Miami Center
15:14 28.5031 -82.7247 354° North 385 443 14,800 1,980 Climbing Miami Center
15:15 28.6192 -82.7267 359° North 409 471 16,900 1,860 Climbing Miami Center
15:16 28.7333 -82.7139 North 410 472 18,700 1,680 Climbing Miami Center
15:17 28.8775 -82.7011 North 431 496 20,400 1,560 Climbing Miami Center
15:18 29.0019 -82.6894 North 444 511 21,900 1,380 Climbing Miami Center
15:19 29.1056 -82.6786 North 439 505 23,200 1,260 Climbing Jacksonville Center
15:20 29.2497 -82.6664 North 451 519 24,400 1,260 Climbing Jacksonville Center
15:21 29.3769 -82.6542 North 462 532 25,800 1,260 Climbing Jacksonville Center
15:22 29.5083 -82.6419 North 462 532 27,000 1,200 Climbing Jacksonville Center
15:23 29.6419 -82.6297 North 467 537 28,300 900 Climbing Jacksonville Center
15:24 29.7736 -82.6175 North 467 537 28,900 300 Climbing Jacksonville Center
15:25 29.9028 -82.6050 North 462 532 28,900  Level Jacksonville Center
15:26 30.0072 -82.5950 North 462 532 28,900  Level Jacksonville Center
15:27 30.1514 -82.5875 North 462 532 28,900  Level Jacksonville Center
15:28 30.2808 -82.5750 North 462 532 28,900  Level Jacksonville Center
15:29 30.4103 -82.5625 North 462 532 28,900  Level Jacksonville Center
15:30 30.5311 -82.5067 22° Northeast 455 524 28,900  Level Jacksonville Center
15:31 30.6372 -82.4217 35° Northeast 455 524 28,900  Level Jacksonville Center
15:32 30.7475 -82.3342 34° Northeast 460 529 28,900  Level Jacksonville Center
15:33 30.8536 -82.2489 35° Northeast 466 536 28,900  Level Jacksonville Center
15:34 30.9617 -82.1633 34° Northeast 466 536 29,000 600 Climbing Jacksonville Center
15:35 31.0697 -82.0753 35° Northeast 466 536 30,200 900 Climbing Jacksonville Center
15:36 31.1778 -81.9917 33° Northeast 466 536 30,900 300 Climbing Jacksonville Center
15:37 31.2836 -81.9106 33° Northeast 456 525 30,900  Level Jacksonville Center
15:38 31.3875 -81.8194 37° Northeast 462 532 31,000  Climbing Jacksonville Center
15:39 31.5078 -81.7228 34° Northeast 468 539 31,000  Level Jacksonville Center
15:40 31.6111 -81.6314 37° Northeast 457 526 31,000  Level Jacksonville Center
15:41 31.7022 -81.5447 39° Northeast 463 533 31,000  Level Jacksonville Center
15:42 31.8117 -81.4403 39° Northeast 468 539 31,000 -60 Level Jacksonville Center
15:43 31.9044 -81.3508 39° Northeast 473 544 30,900 -60 Descending Jacksonville Center
15:44 32.0056 -81.2536 39° Northeast 473 544 30,900  Level Jacksonville Center
15:45 32.1128 -81.1536 38° Northeast 468 539 30,900  Level Jacksonville Center
15:46 32.2242 -81.0483 39° Northeast 468 539 31,000  Climbing Jacksonville Center
15:47 32.3250 -80.9528 39° Northeast 462 532 31,000 -60 Level Jacksonville Center
15:48 32.4175 -80.8622 40° Northeast 467 537 30,900 -60 Descending Jacksonville Center
15:49 32.5181 -80.7639 39° Northeast 467 537 30,900  Level Jacksonville Center
15:50 32.6208 -80.6653 39° Northeast 467 537 30,900  Level Jacksonville Center
15:51 32.7233 -80.5664 39° Northeast 467 537 30,900  Level Jacksonville Center
15:52 32.8239 -80.4675 40° Northeast 467 537 30,900  Level Jacksonville Center
15:53 32.9264 -80.3683 39° Northeast 467 537 30,900  Level Jacksonville Center
15:54 33.0306 -80.2661 39° Northeast 478 550 31,000  Climbing Jacksonville Center
15:55 33.1328 -80.1664 39° Northeast 473 544 31,000 -60 Level Jacksonville Center
15:56 33.2472 -80.0536 39° Northeast 478 550 30,900 -60 Descending Jacksonville Center
15:57 33.3472 -79.9536 40° Northeast 478 550 30,900  Level Jacksonville Center
15:58 33.4450 -79.8533 41° Northeast 472 543 30,900  Level Jacksonville Center
15:59 33.5469 -79.7550 39° Northeast 467 537 30,900  Level Jacksonville Center
16:00 33.6467 -79.6542 40° Northeast 467 537 30,900  Level Jacksonville Center
16:01 33.7483 -79.5531 40° Northeast 467 537 30,900  Level Jacksonville Center
16:02 33.8500 -79.4492 40° Northeast 467 537 30,900  Level Jacksonville Center
16:03 33.9331 -79.3658 40° Northeast 460 529 30,900  Level Jacksonville Center
16:04 34.0347 -79.2639 40° Northeast 460 529 30,900  Level Jacksonville Center
16:05 34.1339 -79.1644 40° Northeast 465 535 30,900  Level Jacksonville Center
16:07 34.3858 -78.9364 37° Northeast 463 533 30,900  Level Washington Center
16:08 34.4989 -78.8528 31° Northeast 463 533 30,900 240 Level Washington Center
16:09 34.6075 -78.7639 34° Northeast 469 540 31,500 600 Climbing Washington Center
16:10 34.7097 -78.6869 32° Northeast 474 545 32,200 720 Climbing Washington Center
16:11 34.8267 -78.5978 32° Northeast 468 539 33,000 360 Climbing Washington Center
16:12 34.9353 -78.5156 32° Northeast 460 529 33,000  Level Washington Center
16:13 35.0417 -78.4308 33° Northeast 460 529 33,000  Level Washington Center
16:14 35.1500 -78.3481 32° Northeast 460 529 33,000  Level Washington Center
16:15 35.2583 -78.2628 33° Northeast 460 529 33,000  Level Washington Center
16:16 35.3558 -78.1872 32° Northeast 460 529 33,000  Level Washington Center
16:17 35.4642 -78.1039 32° Northeast 460 529 33,000  Level Washington Center
16:18 35.5744 -78.0206 32° Northeast 460 529 33,000  Level Washington Center
16:19 35.6803 -77.9369 33° Northeast 460 529 33,000  Level Washington Center
16:20 35.7883 -77.8556 31° Northeast 460 529 33,000  Level Washington Center
16:21 35.8964 -77.7714 32° Northeast 460 529 33,000  Level Washington Center
16:22 36.0042 -77.6844 33° Northeast 460 529 33,000  Level Washington Center
16:23 36.1061 -77.5897 37° Northeast 460 529 33,000  Level Washington Center
16:24 36.2078 -77.4944 37° Northeast 460 529 33,000  Level Washington Center
16:25 36.3053 -77.4014 38° Northeast 452 520 33,000  Level Washington Center
16:26 36.4067 -77.3031 38° Northeast 447 514 33,000  Level Washington Center
16:27 36.5083 -77.2069 37° Northeast 452 520 33,000  Level Washington Center
16:28 36.6117 -77.1083 37° Northeast 452 520 33,000  Level Washington Center
16:29 36.7153 -77.0119 37° Northeast 457 526 33,000  Level Washington Center
16:30 36.8289 -76.9075 36° Northeast 467 537 33,000  Level Washington Center
16:31 36.9322 -76.8158 35° Northeast 461 531 33,000  Level Washington Center
16:32 37.0353 -76.7186 37° Northeast 461 531 33,000  Level Washington Center
16:33 37.1406 -76.6236 36° Northeast 456 525 33,000  Level Washington Center
16:34 37.2436 -76.5283 36° Northeast 456 525 33,000  Level Washington Center
16:35 37.3506 -76.4358 35° Northeast 456 525 33,000  Level Washington Center
16:36 37.4556 -76.3375 37° Northeast 461 531 33,000  Level Washington Center
16:37 37.5583 -76.2442 36° Northeast 461 531 33,000  Level Washington Center
16:38 37.6650 -76.1453 36° Northeast 461 531 33,000 -60 Level Washington Center
16:39 37.7592 -76.0672 33° Northeast 454 522 32,900  Descending Washington Center
16:40 37.8619 -75.9625 39° Northeast 459 528 33,000  Climbing Washington Center
16:41 37.9664 -75.8658 36° Northeast 459 528 33,000  Level Washington Center
16:42 38.0708 -75.7658 37° Northeast 459 528 33,000  Level Washington Center
16:43 38.1753 -75.6683 36° Northeast 459 528 33,000  Level Washington Center
16:44 38.2794 -75.5733 36° Northeast 459 528 33,000  Level Washington Center
16:45 38.4025 -75.4858 29° Northeast 459 528 33,000 -60 Level Washington Center
16:46 38.5233 -75.4378 17° North 454 522 32,900 -60 Descending Washington Center
16:47 38.6442 -75.3897 17° North 449 517 32,900  Level Washington Center
16:48 38.7608 -75.3175 26° Northeast 449 517 32,900  Level Washington Center
16:50 38.9686 -75.1136 43° Northeast 459 528 32,900  Level Washington Center
16:51 39.0642 -75.0194 37° Northeast 473 544 32,900  Level Washington Center
16:52 39.1697 -74.9222 36° Northeast 473 544 32,900  Level Washington Center
16:53 39.2733 -74.8222 37° Northeast 473 544 32,900  Level Washington Center
16:54 39.3789 -74.7164 38° Northeast 473 544 32,900  Level Washington Center
16:55 39.4825 -74.6128 38° Northeast 473 544 32,900 -300 Level Washington Center
16:57 39.6669 -74.4331 37° Northeast 466 536 32,200 -1,020 Descending New York Center
16:58 39.7744 -74.3308 36° Northeast 471 542 30,300 -1,920 Descending New York Center
16:59 39.8797 -74.2253 38° Northeast 471 542 28,300 -2,040 Descending New York Center
17:00 39.9847 -74.1194 38° Northeast 471 542 26,300 -1,740 Descending New York Center
17:01 40.0922 -74.0106 38° Northeast 476 548 24,900 -720 Descending New York Center
17:02 40.1992 -73.9069 36° Northeast 476 548 24,900  Level New York Center
17:03 40.2847 -73.8211 37° Northeast 476 548 24,900 -540 Level New York Center
17:04 40.4044 -73.7008 37° Northeast 481 554 23,900 -1,440 Descending New York Center
17:05 40.5114 -73.5908 38° Northeast 481 554 22,100 -1,680 Descending New York Center
17:07 40.6833 -73.4139 38° Northeast 447 514 19,400 -1,140 Descending Boston Center
17:08 40.7872 -73.3089 37° Northeast 418 481 19,000 -420 Descending Boston Center
17:09 40.8750 -73.2092 41° Northeast 417 480 18,600 -1,080 Descending Boston Center
17:10 40.9625 -73.1058 42° Northeast 417 480 16,900 -1,320 Descending Boston Center
17:11 41.0497 -73.0044 41° Northeast 415 478 15,900 -1,380 Descending Boston Center
17:12 41.1322 -72.9086 41° Northeast 395 455 14,200 -1,620 Descending Boston Center
17:13 41.2272 -72.9094 360° North 357 411 12,600 -1,560 Descending Boston Center
17:14 41.3089 -72.9961 321° Northwest 336 387 11,100 -840 Descending Boston Center
17:15 41.3767 -73.0839 316° Northwest 318 366 10,900 -120 Descending Boston Center
17:16 41.4392 -73.1656 316° Northwest 315 362 10,900  Level Boston Center
17:17 41.5019 -73.2478 316° Northwest 315 362 10,900  Level Boston Center
17:18 41.5686 -73.3336 316° Northwest 330 380 11,000  Climbing Boston Center
17:19 41.6403 -73.4272 316° Northwest 332 382 10,900 -540 Descending Boston Center
17:20 41.7031 -73.5111 315° West 322 371 9,900 -1,140 Descending Boston Center
17:21 41.7594 -73.5861 315° West 293 337 8,600 -1,440 Descending Boston Center
17:22 41.7842 -73.6828 289° West 280 322 7,000 -1,560 Descending Boston Center
17:23 41.7536 -73.7728 246° West 268 308 5,500 -720 Descending Boston Center
17:25 41.7000 -73.9500 248° West 262 302 4,900 -540 Descending New York TRACON
17:26 41.6667 -74.0333 242° Southwest 261 300 4,100 -600 Descending New York TRACON
17:27 41.6333 -74.1167 242° Southwest 260 299 3,800 -600 Descending New York TRACON
17:28 41.6167 -74.2000 255° West 248 285 3,000 -480 Descending New York TRACON
17:29 41.5833 -74.2667 236° Southwest 213 245 2,900 -60 Descending New York TRACON
17:30 41.5667 -74.3500 255° West 201 231 2,900  Level New York TRACON
17:31 41.5167 -74.3833 207° Southwest 200 230 3,000  Climbing New York TRACON
17:32 41.4833 -74.3500 143° Southeast 185 213 2,900 -60 Descending New York TRACON
17:33 41.4833 -74.2833 90° East 175 201 2,900 -480 Level New York TRACON
17:34 41.4833 -74.2333 90° East 157 181 2,000 -840 Descending New York TRACON
17:35 41.5000 -74.1667 72° East 139 160 1,200 -780 Descending New York TRACON